Regional Weather Roundup
Issued by NWS Upton, NY

Current Version | Previous Version | Text Only | Print | Product List | Glossary On
Versions: 1 2 3 4 5 6 7 8 9 10 11 12 13 14 15 16 17 18 19 20 21 22 23 24 25 26 27
000
ASUS41 KOKX 181305
RWROKX

REGIONAL WEATHER ROUNDUP
NATIONAL WEATHER SERVICE NEW YORK NY
900 AM EDT FRI APR 18 2014

NOTE: "FAIR" INDICATES FEW OR NO CLOUDS BELOW 12,000 FEET WITH NO
SIGNIFICANT WEATHER AND/OR OBSTRUCTIONS TO VISIBILITY.

NYZ071-072-176-178-NJZ106-104-181400-
NEW YORK CITY METRO AREA


CITY           SKY/WX    TMP DP  RH WIND       PRES   REMARKS
CENTRAL PARK   CLOUDY    38  27  64 SE6       30.58R WCI  33
LAGUARDIA APRT PTSUNNY   37  26  64 NE6       30.56S WCI  32
KENNEDY INTL   PTSUNNY   38  25  59 E5        30.57S WCI  34
NEWARK/LIBERTY PTSUNNY   39  29  67 VRB3      30.56S
TETERBORO      PTSUNNY   39  27  62 N5        30.56R
$$

NYZ177-179-078>081-181400-
LONG ISLAND NEW YORK

CITY           SKY/WX    TMP DP  RH WIND       PRES   REMARKS
FARMINGDALE    CLOUDY    36  28  73 CALM      30.56R
ISLIP          CLOUDY    38  28  67 E3        30.54R
SHIRLEY        CLOUDY    38  31  76 CALM      30.56R
WESTHAMPTON    CLOUDY    39  29  67 E6        30.56R WCI  35
MONTAUK POINT    N/A     40  31  70 NE7       30.55R
$$

NYZ052-065-067-181400-
HUDSON VALLEY

CITY           SKY/WX    TMP DP  RH WIND       PRES   REMARKS
WHITE PLAINS   CLOUDY    34  26  72 E6        30.54R WCI  29
NEWBURGH       MOSUNNY   36  28  75 SE6       30.56R WCI  31
MONTGOMERY     MOSUNNY   36  26  67 CALM      30.55R
POUGHKEEPSIE   MOSUNNY   37  27  67 E5        30.56R WCI  33
ALBANY         PTSUNNY   37  19  48 S12       30.53S WCI  29
$$

NJZ001-105-106-008-010-013-015-019>022-104-181400-
NEW JERSEY

CITY           SKY/WX    TMP DP  RH WIND       PRES   REMARKS
NEWARK/LIBERTY PTSUNNY   39  29  67 VRB3      30.56S
TETERBORO      PTSUNNY   39  27  62 N5        30.56R
CALDWELL       MOSUNNY   37  27  67 VRB6      30.56S WCI  32
MORRISTOWN     CLOUDY    36  27  69 CALM      30.56S
SOMERVILLE     CLOUDY    38  29  70 NE6       30.53F WCI  33
LINDEN         CLOUDY    40  28  62 E5        30.58F
SUSSEX         CLOUDY    38  29  70 CALM      30.53S
ANDOVER          N/A     36  27  69 SE3       30.53S
TRENTON        CLOUDY    39  28  64 E6        30.53F WCI  35
MILLVILLE      CLOUDY    40  32  73 NE9       30.51F WCI  34
ATLANTIC CITY  CLOUDY    41  32  70 NE9       30.52S
WRIGHTSTOWN    CLOUDY    39  30  69 NE9       30.52F WCI  33
TOMS RIVER     CLOUDY    39  30  70 NE3       30.54S
BELMAR         CLOUDY    37  27  65 NE7       30.53F WCI  32
$$

PAZ047>061-062-071-181400-
EASTERN PENNSYLVANIA

CITY           SKY/WX    TMP DP  RH WIND       PRES   REMARKS
PHILADELPHIA   CLOUDY    42  28  57 E8        30.53F
ALLENTOWN      CLOUDY    39  28  64 E9        30.52F WCI  33
SCRANTON       PTSUNNY   37  27  67 VRB3      30.47F
$$

CTZ002-004>006-009-010-012-RIZ004-006-007-MAZ004-011-015-181400-
SOUTHERN NEW ENGLAND
 IN CT

CITY           SKY/WX    TMP DP  RH WIND       PRES   REMARKS
BRADLEY INTL   CLOUDY    35  26  69 N7        30.57R WCI  29
HARTFORD       CLOUDY    36  27  69 N6        30.58R WCI  31
DANBURY        CLOUDY    34  27  75 E3        30.57R
WTRBRY/OXFORD  PTSUNNY   34  25  69 NE5       30.56R WCI  30
BRIDGEPORT     CLOUDY    38  28  67 NE7       30.57R WCI  33
MERIDEN        PTSUNNY   36  27  69 CALM      30.57R
NEW HAVEN      PTSUNNY   38  28  67 N7        30.55F WCI  33
CHESTER        CLOUDY    36  30  80 E9        30.54F WCI  29
GROTON         CLOUDY    38  30  73 N7        30.55R WCI  33
WILLIMANTIC    CLOUDY    37  28  70 VRB3      30.56R

 IN RI

CITY           SKY/WX    TMP DP  RH WIND       PRES   REMARKS
PROVIDENCE     CLOUDY    38  29  70 N8        30.53S WCI  32
BLOCK ISLAND   CLOUDY    39  28  65 E9G17     30.52R WCI  33
WESTERLY       CLOUDY    38  30  73 N7        30.55R WCI  33

 IN MA

CITY           SKY/WX    TMP DP  RH WIND       PRES   REMARKS
BOSTON         CLOUDY    40  29  64 E13       30.56S WCI  32
WORCESTER      CLOUDY    32  26  78 NE7       30.52R WCI  26
WESTFIELD      CLOUDY    36  26  67 VRB6      30.57R WCI  31
PROVINCETOWN   CLOUDY    39  30  70 MISG      30.53S
NANTUCKET      CLOUDY    42  35  76 NE13G24   30.47F
$$

ANZ330-335-338-340-345-350-353-355-181400-
COASTAL MARINE OBSERVATIONS


STATION/POSITION TIME  SKY/WX   TEMP    WIND        PRES    VSBY  WAVE
                                AIR SEA DIR/SP/G                  HT/PER
                 (UTC)          (F)     (DEG/KT/KT) (MB)    (MI)  (FT/S)
NY HARB ENTRANCE 1300            37 42  290/ 10/ 12 1034.5
4S FIRE IS       1200               44                N/A           6/ 9
23SW MTP         1300            39 42   40/ 12/ 14 1033.5          7/ 8
HUDSON CANYON    1200            40 44   50/ 14/ 17 1031.9          8/ 9
EXECUTION ROCKS  1300            36 42   50/  6/ 10   N/A
WESTERN LI SOUND 1300            36      50/  6/ 10   N/A           2/ 4
CENTRAL LI SOUND 1200            35 42   40/ 10/ 12   N/A           2/ 4
EASTERN LI SOUND NOT AVBL
ROBBINS REEF     1300            36      70/  5/  6   N/A
$$


>>>>>>>>>>>>>>>>>>>>>>>>>>>> KEY <<<<<<<<<<<<<<<<<<<<<<<<<<<
>                                                          <
>     SKY/WX - SKY CONDITION/PRESENT WEATHER               <
>     TMP    - TEMPERATURE IN FAHRENHEIT                   <
>     DP     - DEWPOINT IN FAHRENHEIT                      <
>     RH     - RELATIVE HUMIDITY IN PERCENT                <
>     WIND   - DIRECTION AND SPEED IN MPH                  <
>     PRES   - MEAN SEA LEVEL PRESSURE IN INCHES OF HG     <
>     WCI    - WIND CHILL INDEX                            <
>     VSB    - VISIBILITY IN MILES                         <
>     HX     - HEAT INDEX                                  <
>     TC     - TEMPERATURE IN CELSIUS                      <
>     VRB    - VARIABLE WIND DIRECTION                     <
>                                                          <
>>>>>>>>>>>>>>>>>>>>>>>>>>>> KEY <<<<<<<<<<<<<<<<<<<<<<<<<<<





USA.gov is the U.S. government's official web portal to all federal, state and local government web resources and services.